Weather in Kamennyy Brod

Russia / Samara Oblast     52°53′40″N   49°58′05″E
temp.,
°C
wind,
m/s
gust,
m/s
humid.,
%
clouds,
%
prec.,
mm/h
press.,
hPa
HPBL,
m
26 february, fri
fri2601:00−14s61194100 1.0 1019561
04:00−13sse51094100 1.7 1018451
07:00−13se489599 0.4 1016279
10:00−12se479498 0.6 1016339
13:00−10sse579197 0.1 1017497
16:00−10sse699198 0.1 1016532
19:00−11sse61194100 0.1 1013426
22:00−9sse81594100 1.9 1008456
27 february, sat
sat2701:00−7s81595100 3.8 1002465
04:00−1ssw4898100 6.1 1000254
07:00+1wsw6139392 0.1 999567
10:00+1wsw6129490 0.1 999573
13:00+1wsw61110093 0.1 999544
16:00+1wsw5910097 0.1 998513
19:000wsw51098100 0.5 998503
22:00−1sw3898100 1.2 998313
28 february, sun
sun2801:00−4w4697100 1.6 998184
04:00−6wnw589599 2.3 1000242
07:00−10nw5109499 0.4 1002402
10:00−11nnw599296 0.5 1005446
13:00−9nnw5891100 0.1 1007551
16:00−9nw5791100 0.1 1009597
19:00−13nw4894100 0.1 1012309
22:00−16nnw359495 0.1 1015103
1 march, mon
mon101:00−19nw339521 0.0 101638
04:00−21nw239510 0.0 101827
07:00−22nw23960 0.0 102024
10:00−19nw23930 0.0 1022173
13:00−14nnw248765 0.0 1023457
16:00−13nw238882 0.0 1023454
19:00−18wnw2298100 0.0 102423
22:00−21w129666 0.0 102420
2 march, tue
tue201:00−21wsw33980 0.0 102222
04:00−19ssw469836 0.0 1020111
07:00−15ssw5993100 0.0 1017260
10:00−12sw61094100 0.4 1013422
13:00−8sw61094100 0.7 1010494
16:00−3sw61096100 1.4 1007542
19:00−2sw4997100 0.9 1005354
22:00−4wnw3494100 1.3 100478